Location: *
(52.8833°S, 126.1833°W)
Time: 10:47:04
(UTC+00:00)

Daily predictions for brighter satellites

Satellite Brightness Start Highest point End
(mag) Time Altitude Azimuth Time Altitude Azimuth Time Altitude Azimuth
SAR-Lupe-4 3.6 12:01:04 10° S 12:04:44 64° WSW 12:08:21 10° NNW
Helios 1A Rocket 4.5 12:01:55 10° NE 12:05:50 41° ESE 12:09:47 10° S
PAYLOAD A 4.3 12:04:19 10° N 12:09:38 54° W 12:15:04 10° SSW
Cosmos 2263 Rocket 3.6 12:05:20 10° N 12:10:26 37° ENE 12:15:38 10° SE
Cosmos 2154 Rocket 4.1 12:06:01 10° S 12:12:27 87° E 12:18:46 10° N
Cosmos 1452 Rocket 3.6 12:07:08 10° NNW 12:12:29 88° ENE 12:17:53 10° SSE
Lacrosse 5 rocket 1.8 12:08:05 10° WSW 12:12:48 74° SSE 12:17:19 10° ENE
Cosmos 1025 Rocket 3.9 12:09:17 10° SSW 12:13:13 31° W 12:17:04 10° NNW
Meteor 1-31 Rocket 2.8 12:10:02 10° N 12:13:54 66° WNW 12:17:53 10° SSW
Cosmos 389 Rocket 3.0 12:11:26 10° SSW 12:14:50 39° W 12:18:11 10° NNW
Unknown 3.4 12:12:35 13° WNW 12:15:44 66° NNE 12:19:19 10° E
IDEFIX/ARIANE 42P 3.5 12:12:39 10° NNW 12:17:05 27° W 12:21:33 10° SW
Okean 2 Rocket 4.2 12:13:48 12° WNW 12:17:17 27° WSW 12:21:11 10° S
Cosmos 405 Rocket 2.9 12:13:47 10° N 12:17:40 75° E 12:21:32 10° SSE
Cosmos 1544 3.5 12:16:16 10° NNW 12:19:49 46° WSW 12:23:25 10° S
DEBRIS 3.5 12:17:49 12° NW 12:20:06 42° NNE 12:25:47 10° E
Cosmos 1610 Rocket 4.5 12:15:08 10° SSW 12:21:22 77° W 12:27:33 10° N
Cosmos 2184 Rocket 4.1 12:16:01 10° SSW 12:22:08 56° W 12:28:09 10° NNW
Landsat 5 3.4 12:19:44 10° SSE 12:23:49 86° WSW 12:27:59 10° NNW
USA 32 4.2 12:18:37 10° SSW 12:23:51 58° W 12:29:00 10° NNW
Cosmos 1437 Rocket 2.9 12:21:23 10° SSW 12:25:33 84° ESE 12:29:34 10° NNE
SL-16 R/B 3.4 12:22:35 10° SW 12:26:37 20° W 12:30:38 10° NW
Cosmos 1603 3.8 12:21:06 10° SW 12:26:41 55° WNW 12:32:10 10° N
SJ-12 4.5 12:23:14 10° NNE 12:27:25 68° ESE 12:31:39 10° S
CZ-4B R/B 4.4 12:23:43 10° N 12:28:09 51° W 12:32:38 10° SSW
Okean 1 Rocket 3.2 12:26:31 10° NNW 12:30:52 56° WSW 12:35:16 10° S
Cosmos 1484 Rocket 3.0 12:26:48 10° NNE 12:30:52 87° ESE 12:35:01 10° SSW
Cosmos 1850 Rocket 4.5 12:27:57 10° SW 12:33:00 41° WNW 12:37:56 10° N
CZ-4B DEB 4.3 12:28:06 10° NNE 12:33:38 83° WNW 12:39:16 10° SSW
ATLAS CENTAUR R/B 2.8 12:33:01 10° W 12:36:04 24° SSW 12:39:14 10° SSE
Cosmos 2341 Rocket 4.3 12:30:12 10° S 12:36:44 82° E 12:43:09 10° NNE
Cosmos 1420 Rocket 4.3 12:32:25 10° NW 12:37:32 54° WSW 12:42:45 10° SSE
Unknown 2.7 12:35:01 10° W 12:37:59 82° N 12:40:54 10° ENE
Cosmos 2227 Rocket 3.3 12:33:56 10° WNW 12:39:00 32° SW 12:44:07 10° SSE
PAYLOAD B 4.3 12:34:08 10° NNE 12:39:41 82° WNW 12:45:19 10° SSW
H-2A R/B 4.0 12:37:26 10° NW 12:40:58 22° W 12:44:31 10° SW
